Location: Vancouver
(49.2500°N, 123.1330°W)
Time: 21:47:13
(UTC-07:00)

ISS - All Passes

Search period start: 26 July 2017 00:00
Search period end: 05 August 2017 00:00
Orbit: 400 x 408 km, 51.6° (Epoch: 27 July)

Date Brightness Start Highest point End Pass type
(mag) Time Alt. Az. Time Alt. Az. Time Alt. Az.
26 Jul - 01:08:44 10° WNW 01:11:58 59° N 01:15:12 10° E visible
26 Jul - 02:45:17 10° WNW 02:48:27 49° SSW 02:51:37 10° SE visible
26 Jul - 04:24:05 10° SW 04:24:18 10° SW 04:24:31 10° SW night (unlit)
26 Jul - 21:03:53 10° SSW 21:06:40 26° SE 21:09:28 10° E daylight
26 Jul - 22:39:39 10° WSW 22:42:54 80° NNW 22:46:11 10° ENE visible
27 Jul - 00:16:23 10° WNW 00:19:36 54° N 00:22:48 10° E visible
27 Jul - 01:52:56 10° WNW 01:56:12 75° SSW 01:59:27 10° ESE visible
27 Jul - 03:30:03 10° W 03:32:15 17° SW 03:34:26 10° S night (unlit)
27 Jul - 20:12:23 10° S 20:14:33 17° SE 20:16:43 10° E daylight
27 Jul - 21:47:21 10° WSW 21:50:36 74° SSE 21:53:51 10° ENE visible
27 Jul - 23:23:59 10° W 23:27:11 54° N 23:30:24 10° ENE visible
28 Jul - 01:00:36 10° WNW 01:03:52 80° NNE 01:07:08 10° ESE visible
28 Jul - 02:37:19 10° W 02:40:08 27° SW 02:42:56 10° SSE visible
28 Jul - 20:55:10 10° SW 20:58:19 49° SSE 21:01:29 10° ENE daylight
28 Jul - 22:31:33 10° W 22:34:47 60° N 22:38:01 10° ENE visible
29 Jul - 00:08:15 10° WNW 00:11:30 63° N 00:14:44 10° E visible
29 Jul - 01:44:49 10° WNW 01:47:55 42° SSW 01:51:01 10° SE visible
29 Jul - 20:03:10 10° SSW 20:06:05 31° SE 20:09:01 10° E daylight
29 Jul - 21:39:08 10° W 21:42:24 73° NNW 21:45:40 10° ENE visible
29 Jul - 23:15:52 10° WNW 23:19:05 55° N 23:22:18 10° E visible
30 Jul - 00:52:24 10° WNW 00:55:39 65° SSW 00:58:52 10° ESE visible
30 Jul - 02:29:48 10° WSW 02:31:38 14° SW 02:33:27 10° S night (unlit)
30 Jul - 19:11:29 10° S 19:13:54 20° SE 19:16:20 10° E daylight
30 Jul - 20:46:46 10° WSW 20:50:02 84° SSE 20:53:18 10° ENE daylight
30 Jul - 22:23:26 10° W 22:26:38 53° N 22:29:51 10° ENE visible
31 Jul - 00:00:01 10° WNW 00:03:18 88° NNE 00:06:34 10° ESE visible
31 Jul - 01:36:50 10° W 01:39:29 23° SW 01:42:07 10° SSE visible
31 Jul - 18:20:27 10° SSE 18:21:47 12° SE 18:23:06 10° ESE daylight
31 Jul - 19:54:29 10° SW 19:57:41 57° SSE 20:00:54 10° ENE daylight
31 Jul - 21:30:59 10° W 21:34:12 57° N 21:37:26 10° ENE visible
31 Jul - 23:07:39 10° WNW 23:10:55 68° NNE 23:14:09 10° E visible
01 Aug - 00:44:14 10° W 00:47:16 36° SSW 00:50:17 10° SE visible
01 Aug - 19:02:22 10° SW 19:05:24 36° SSE 19:08:25 10° E daylight
01 Aug - 20:38:31 10° W 20:41:46 67° NNW 20:45:01 10° ENE daylight
01 Aug - 22:15:14 10° WNW 22:18:27 57° N 22:21:41 10° E visible
01 Aug - 23:51:46 10° WNW 23:54:58 56° SSW 23:58:10 10° SE visible
02 Aug - 01:29:35 10° WSW 01:30:53 12° SW 01:32:11 10° SSW visible
02 Aug - 18:10:31 10° SSW 18:13:10 23° SE 18:15:48 10° E daylight
02 Aug - 19:46:04 10° WSW 19:49:20 87° NNW 19:52:37 10° ENE daylight
02 Aug - 21:22:47 10° WNW 21:25:59 53° N 21:29:11 10° E visible
02 Aug - 22:59:21 10° WNW 23:02:37 83° SSW 23:05:52 10° ESE visible
03 Aug - 00:36:17 10° W 00:38:43 19° SW 00:41:09 10° S visible
03 Aug - 17:19:07 10° S 17:20:58 14° SE 17:22:48 10° ESE daylight
03 Aug - 18:53:43 10° WSW 18:56:57 65° SSE 19:00:11 10° ENE daylight
03 Aug - 20:30:17 10° W 20:33:30 55° N 20:36:43 10° ENE daylight
03 Aug - 22:06:55 10° WNW 22:10:11 73° NNE 22:13:27 10° E visible
03 Aug - 23:43:34 10° W 23:46:29 31° SW 23:49:24 10° SSE visible
04 Aug - 18:01:30 10° SW 18:04:36 42° SSE 18:07:42 10° ENE daylight
04 Aug - 19:37:47 10° W 19:41:01 63° N 19:44:15 10° ENE daylight
04 Aug - 21:14:29 10° WNW 21:17:43 60° N 21:20:57 10° E daylight
04 Aug - 22:51:01 10° WNW 22:54:11 48° SSW 22:57:20 10° SE visible
